[[{"header":{"parameterUnit":"m.s-1","parameterCategory":1,"la1":30.2991,"la2":30.254,"lo1":-89.0895,"lo2":-89.0444,"dy":0.0017,"dx":0.0017,"nx":28,"ny":28,"refTime":"2024-10-13T09:00:00:Z","depth":0,"parameterNumber":2,"parameterNumberName":"U-component_of_WINDS"},"data":[0,0,0,0,0,0,0,0,0,0,0,0,0,0,0,0,0,0,0,0,0,0,0,0,0,0,0,0,0,0,0,0,0,0,0,0,0,0,0,0,0,0,0,0,0,0,0,0,0,0,0,0,0,0,0,0,0,0,4.2255,4.2255,0,4.2334,4.2335,4.2336,4.2305,4.2303,4.2301,4.23,4.2381,4.2385,4.2389,0,0,0,0,0,0,0,0,0,0,0,0,0,4.2078,4.2081,4.2255,4.2256,4.2257,4.2334,4.2335,4.2336,4.2305,4.2303,4.2301,4.2299,4.238,4.2385,4.2389,0,0,0,0,0,0,0,0,0,0,0,0,0,4.2156,4.2083,4.2254,4.2251,4.2251,4.2334,4.2335,4.2337,4.2306,4.2303,4.23,4.2298,4.2378,4.2384,4.239,4.2481,0,0,4.2408,4.241,0,0,0,0,0,0,0,0,4.2152,4.2162,4.225,4.2251,4.2252,4.2307,4.2303,4.2385,4.2307,4.2285,4.23,4.2296,4.2359,4.2366,4.2387,4.2485,4.2489,4.2408,4.2412,4.2414,4.2416,0,0,0,0,0,0,0,4.2146,4.2159,4.2286,4.2251,4.2252,4.2246,4.2254,4.2318,4.2336,4.2287,4.2285,4.2295,4.2359,4.2382,4.2389,4.249,4.2408,4.2413,4.2417,4.2419,4.2671,4.2674,0,0,0,0,0,0,4.214,4.2155,4.2284,4.2288,4.2194,4.2251,4.226,4.2292,4.2336,4.234,4.2297,4.2293,4.2373,4.2382,4.2392,4.2503,4.2414,4.242,4.2423,4.2668,4.2671,4.2675,0,0,0,0,0,0,4.2137,4.2152,4.228,4.2221,4.2237,4.2257,4.2293,4.2295,4.2318,4.2343,4.2347,4.2317,4.2371,4.2383,4.246,4.2506,4.2422,4.2428,4.2664,4.2669,4.2673,4.2727,0,0,0,0,0,0,4.2132,4.2151,4.2185,4.2222,4.224,4.2347,4.2296,4.2299,4.2328,4.2323,4.2363,4.2367,4.237,4.2452,4.2466,4.2512,4.2432,4.266,4.2666,4.2672,4.2721,4.2733,4.2743,0,0,0,0,0,4.2126,4.2196,4.2187,4.2203,4.2283,4.2349,4.236,4.2362,4.2332,4.2367,4.2384,4.2365,4.2499,4.246,4.2476,4.2524,4.2657,4.2664,4.2671,4.2716,4.273,4.2742,0,0,0,0,0,0,4.2163,4.2201,4.2191,4.2275,4.231,4.2344,4.2388,4.2377,4.242,4.2414,4.2415,4.2424,4.2504,4.2522,4.2478,4.2617,4.2573,4.2584,4.2602,4.2616,4.2626,4.262,4.2437,0,0,0,0,0,4.2181,4.2232,4.2262,4.2334,4.2352,4.2367,4.2396,4.2395,4.2431,4.2445,4.2467,4.2502,4.2553,4.2585,4.2632,4.2724,4.2733,4.2766,4.2777,4.2785,4.2794,4.2847,4.2862,4.2698,4.2698,4.2698,0,0,4.2219,4.2246,4.2277,4.2342,4.2368,4.2422,4.2379,4.2436,4.2476,4.2453,4.2527,4.2546,4.2586,4.2671,4.2709,4.2688,4.2842,4.2795,4.2801,4.2806,4.2856,4.2871,4.2885,4.2703,4.2702,4.2702,0,0,4.2315,4.234,4.2404,4.2432,4.2473,4.2483,4.2499,4.2536,4.2548,4.2622,4.2607,4.2655,4.2741,4.277,4.2797,4.2909,4.2894,4.2925,4.2981,4.3032,4.3045,4.3056,4.3098,4.3112,4.2934,4.2934,4.2934,0,4.2356,4.2435,4.2438,4.2497,4.2527,4.2511,4.2576,4.2603,4.2658,4.2679,4.2655,4.2764,4.279,4.2883,4.2911,4.2932,4.2951,4.2919,4.3043,4.3054,4.3065,4.3104,4.312,4.2937,4.2937,4.2936,4.2936,0,4.2485,4.2541,4.2587,4.2642,4.2677,4.2739,4.2752,4.2788,4.2785,4.2799,4.2877,4.2908,4.2962,4.2985,4.2982,4.3079,4.3064,4.3042,4.2998,4.3084,4.3121,4.3136,4.2942,4.2941,4.294,4.2939,0,0,4.2604,4.2662,4.2679,4.2704,4.275,4.2793,4.2857,4.2911,4.2942,4.2981,4.3035,4.311,4.309,4.312,4.3121,4.3166,4.3255,4.3138,4.3139,4.3159,4.3366,4.3382,4.34,4.3247,4.3249,4.3252,4.3363,0,4.2704,4.2814,4.282,4.292,4.2972,4.2959,4.3015,4.305,4.3065,4.3113,4.313,4.3184,4.3153,4.3171,4.3215,4.3235,4.3297,4.3227,4.3297,4.3299,4.3287,4.3419,4.3436,4.3539,4.3377,4.338,4.3381,0,4.2834,4.2879,4.2985,4.3027,4.3049,4.3098,4.315,4.3195,4.3236,4.3244,4.328,4.3276,4.3342,4.3297,4.3389,4.3342,4.3371,4.3386,4.339,4.3396,4.3345,4.3429,4.3572,4.3587,4.3404,4.3402,4.3401,0,4.2912,4.2999,4.3074,4.3096,4.3146,4.3181,4.3204,4.3242,4.3275,4.3321,4.3343,4.3396,4.3425,4.3466,4.3477,4.3443,4.357,4.3525,4.358,4.3579,4.3605,4.3604,4.3755,4.3625,4.3625,4.3625,4.3624,0,4.3023,4.3088,4.3109,4.3155,4.3229,4.3237,4.331,4.333,4.3365,4.3416,4.3408,4.3457,4.3468,4.3519,4.3528,4.3604,4.3617,4.3627,4.3628,4.3627,4.3626,4.3646,4.3639,4.3629,4.3628,4.3627,4.3626,0,4.312,4.3137,4.3218,4.3261,4.3273,4.3326,4.3362,4.3407,4.3423,4.3488,4.3504,4.3529,4.3589,4.3604,4.3675,4.3682,4.3772,4.3767,4.3758,4.3758,4.3811,4.3806,4.3981,4.4005,4.3859,4.386,4.3861,0,4.319,4.324,4.3288,4.3322,4.3347,4.3401,4.3436,4.3446,4.3483,4.3535,4.3575,4.3634,4.3682,4.3779,4.3804,4.3859,4.3855,4.3913,4.3863,4.3862,4.3857,4.3854,4.386,4.3922,4.3923,4.3924,4.3926,0,4.3312,4.3318,4.3368,4.3423,4.3465,4.3508,4.3549,4.3577,4.3594,4.3636,4.3698,4.3735,4.3809,4.3869,4.3925,4.395,4.3941,4.3941,4.3957,4.3956,4.3949,4.3955,4.3784,4.3937,4.3936,4.3935,4.3934,4.3934,4.3398,4.3443,4.3485,4.3542,4.3574,4.3614,4.3659,4.3682,4.3734,4.3795,4.3799,4.3866,4.3909,4.3984,4.4012,4.4066,4.4049,4.4071,4.4077,4.4082,4.4087,4.3942,4.4076,4.4076,4.4076,4.4076,4.4075,0,4.352,4.3547,4.3599,4.3658,4.3704,4.3693,4.3739,4.3778,4.3838,4.3878,4.3927,4.3999,4.4058,4.4089,4.4148,4.4185,4.4183,4.42,4.4197,4.4203,4.4099,4.408,4.4201,4.4201,4.4201,4.4201,4.4201,4.4201,4.3588,4.3665,4.3677,4.3771,4.3798,4.3864,4.3892,4.3929,4.3962,4.4043,4.4092,4.4113,4.415,4.4212,4.4267,4.4274,4.4297,4.4316,4.4322,4.4223,4.421,4.4198,4.418,4.4321,4.4321,4.4422,4.4423,4.4424]},{"header":{"parameterUnit":"m.s-1","parameterCategory":1,"la1":30.2991,"la2":30.254,"lo1":-89.0895,"lo2":-89.0444,"dy":0.0017,"dx":0.0017,"nx":28,"ny":28,"refTime":"2024-10-13T09:00:00:Z","depth":0,"parameterNumber":3,"parameterNumberName":"V-component_of_WINDS"},"data":[0,0,0,0,0,0,0,0,0,0,0,0,0,0,0,0,0,0,0,0,0,0,0,0,0,0,0,0,0,0,0,0,0,0,0,0,0,0,0,0,0,0,0,0,0,0,0,0,0,0,0,0,0,0,0,0,0,0,-0.7694,-0.7695,0,-0.7715,-0.7715,-0.7715,-0.7736,-0.7737,-0.7737,-0.7737,-0.7758,-0.7758,-0.7759,0,0,0,0,0,0,0,0,0,0,0,0,0,-0.7674,-0.7675,-0.7694,-0.7695,-0.7695,-0.7715,-0.7715,-0.7715,-0.7736,-0.7737,-0.7737,-0.7737,-0.7758,-0.7758,-0.7759,0,0,0,0,0,0,0,0,0,0,0,0,0,-0.7688,-0.7675,-0.7694,-0.7708,-0.7709,-0.7715,-0.7715,-0.7716,-0.7736,-0.7737,-0.7737,-0.7738,-0.7758,-0.7758,-0.7759,-0.7753,0,0,-0.776,-0.776,0,0,0,0,0,0,0,0,-0.7687,-0.7688,-0.7705,-0.7707,-0.7708,-0.7724,-0.7716,-0.7728,-0.7736,-0.7726,-0.7737,-0.7738,-0.7746,-0.7748,-0.7751,-0.7754,-0.7755,-0.776,-0.776,-0.776,-0.7761,0,0,0,0,0,0,0,-0.7686,-0.7688,-0.7703,-0.7706,-0.7707,-0.7713,-0.7716,-0.7718,-0.7733,-0.7727,-0.7728,-0.7731,-0.7747,-0.775,-0.7751,-0.7755,-0.776,-0.776,-0.7761,-0.7761,-0.7757,-0.7756,0,0,0,0,0,0,-0.7683,-0.7687,-0.7702,-0.7703,-0.7699,-0.7713,-0.7716,-0.7718,-0.7733,-0.7736,-0.773,-0.7732,-0.7749,-0.7751,-0.7752,-0.7747,-0.776,-0.7761,-0.7761,-0.7757,-0.7756,-0.7756,0,0,0,0,0,0,-0.7682,-0.7684,-0.7701,-0.7695,-0.7698,-0.7713,-0.7716,-0.7718,-0.7721,-0.7736,-0.7739,-0.773,-0.7749,-0.7751,-0.7753,-0.7748,-0.7761,-0.7761,-0.7757,-0.7757,-0.7756,-0.7737,0,0,0,0,0,0,-0.7682,-0.7684,-0.7681,-0.7695,-0.7698,-0.7701,-0.7715,-0.7719,-0.7722,-0.7724,-0.7737,-0.7739,-0.775,-0.7752,-0.7753,-0.7749,-0.7762,-0.7758,-0.7757,-0.7756,-0.7738,-0.7736,-0.7734,0,0,0,0,0,-0.7681,-0.7674,-0.7681,-0.7683,-0.7695,-0.7701,-0.7702,-0.7715,-0.7722,-0.772,-0.7729,-0.7739,-0.7749,-0.7752,-0.7754,-0.7749,-0.7758,-0.7757,-0.7757,-0.7739,-0.7736,-0.7734,0,0,0,0,0,0,-0.7659,-0.7676,-0.7684,-0.7682,-0.769,-0.7704,-0.7702,-0.7711,-0.7717,-0.7719,-0.7734,-0.7737,-0.7737,-0.7743,-0.7747,-0.7746,-0.7755,-0.7754,-0.7741,-0.7739,-0.7737,-0.7735,-0.7762,0,0,0,0,0,-0.7654,-0.7656,-0.7672,-0.7668,-0.7672,-0.7686,-0.7689,-0.7698,-0.7707,-0.771,-0.772,-0.7728,-0.7734,-0.7737,-0.7742,-0.7739,-0.7743,-0.7738,-0.7735,-0.7734,-0.7733,-0.7734,-0.7732,-0.7753,-0.7753,-0.7753,0,0,-0.7643,-0.7653,-0.7654,-0.7664,-0.7671,-0.7675,-0.7689,-0.7691,-0.7694,-0.7711,-0.7713,-0.7721,-0.7731,-0.7731,-0.7732,-0.7737,-0.7728,-0.7733,-0.7731,-0.7731,-0.7733,-0.7731,-0.7729,-0.7753,-0.7753,-0.7753,0,0,-0.7625,-0.7633,-0.7631,-0.7639,-0.765,-0.766,-0.766,-0.7674,-0.7679,-0.7682,-0.7696,-0.7699,-0.7707,-0.7715,-0.7719,-0.7707,-0.7717,-0.7709,-0.7697,-0.7698,-0.7696,-0.7695,-0.7691,-0.769,-0.7708,-0.7708,-0.7708,0,-0.761,-0.7615,-0.7629,-0.7631,-0.7636,-0.7653,-0.7652,-0.7659,-0.7671,-0.7674,-0.768,-0.7692,-0.77,-0.7702,-0.77,-0.7703,-0.7704,-0.7707,-0.7695,-0.7694,-0.7693,-0.769,-0.7688,-0.7707,-0.7707,-0.7707,-0.7707,0,-0.7597,-0.7601,-0.7598,-0.7611,-0.7615,-0.7616,-0.7631,-0.7634,-0.7643,-0.7653,-0.7656,-0.7667,-0.7676,-0.7677,-0.7686,-0.7682,-0.7685,-0.7693,-0.7702,-0.769,-0.7687,-0.7686,-0.7705,-0.7706,-0.7706,-0.7706,0,0,-0.7564,-0.7586,-0.7585,-0.7592,-0.7606,-0.7609,-0.7611,-0.762,-0.7623,-0.7632,-0.7634,-0.7642,-0.765,-0.7656,-0.7666,-0.7666,-0.7658,-0.7675,-0.7675,-0.7672,-0.7655,-0.7649,-0.7647,-0.7664,-0.7664,-0.7664,-0.7655,0,-0.7549,-0.7554,-0.7568,-0.7568,-0.7572,-0.7589,-0.7591,-0.7601,-0.761,-0.7616,-0.7627,-0.7632,-0.7642,-0.7646,-0.7647,-0.7658,-0.7654,-0.7659,-0.7668,-0.7668,-0.7664,-0.7646,-0.7639,-0.7629,-0.7654,-0.7653,-0.7653,0,-0.7532,-0.754,-0.7541,-0.7558,-0.756,-0.7561,-0.7572,-0.7576,-0.7588,-0.7596,-0.7603,-0.7614,-0.7619,-0.7628,-0.7635,-0.7638,-0.7642,-0.7649,-0.7649,-0.765,-0.7659,-0.7647,-0.7626,-0.7625,-0.7652,-0.7652,-0.7652,0,-0.7509,-0.752,-0.7523,-0.7528,-0.7547,-0.7548,-0.7556,-0.7568,-0.7573,-0.7582,-0.7586,-0.7596,-0.7601,-0.7609,-0.7623,-0.7628,-0.7628,-0.7639,-0.7635,-0.7635,-0.7634,-0.7634,-0.7614,-0.7636,-0.7636,-0.7636,-0.7637,0,-0.7491,-0.7491,-0.7513,-0.7515,-0.7516,-0.7532,-0.7533,-0.7543,-0.7554,-0.7559,-0.7574,-0.7578,-0.7596,-0.7603,-0.7614,-0.7619,-0.7621,-0.7627,-0.763,-0.7626,-0.7625,-0.7629,-0.763,-0.7636,-0.7636,-0.7636,-0.7636,0,-0.7465,-0.7479,-0.7484,-0.7502,-0.7506,-0.7506,-0.7522,-0.7525,-0.7536,-0.7542,-0.7544,-0.7562,-0.757,-0.7586,-0.7598,-0.7606,-0.7608,-0.7613,-0.7604,-0.7606,-0.7602,-0.7602,-0.7584,-0.7583,-0.7606,-0.7605,-0.7605,0,-0.7452,-0.7453,-0.7471,-0.7475,-0.7483,-0.7489,-0.7495,-0.7512,-0.7518,-0.7533,-0.7534,-0.7544,-0.7552,-0.7565,-0.758,-0.759,-0.7596,-0.7589,-0.7597,-0.7593,-0.7596,-0.7596,-0.7597,-0.7586,-0.7586,-0.7586,-0.7586,0,-0.7428,-0.7436,-0.7444,-0.7454,-0.7461,-0.747,-0.748,-0.7483,-0.7502,-0.7508,-0.7517,-0.7524,-0.7538,-0.7548,-0.7561,-0.757,-0.7581,-0.7583,-0.7583,-0.7578,-0.7573,-0.7577,-0.7599,-0.7583,-0.7583,-0.7584,-0.7584,-0.7584,-0.7409,-0.7411,-0.7425,-0.7433,-0.7443,-0.7452,-0.7456,-0.7469,-0.7477,-0.7489,-0.7499,-0.7508,-0.7522,-0.754,-0.7549,-0.7557,-0.7562,-0.7561,-0.7561,-0.7561,-0.756,-0.7572,-0.7559,-0.7559,-0.7559,-0.7559,-0.7559,0,-0.7386,-0.7397,-0.7404,-0.7418,-0.7426,-0.7437,-0.7449,-0.7454,-0.7462,-0.7474,-0.7483,-0.7494,-0.7504,-0.752,-0.7532,-0.7535,-0.7541,-0.7538,-0.7538,-0.754,-0.7554,-0.7553,-0.7533,-0.7533,-0.7533,-0.7533,-0.7533,-0.7533,-0.7376,-0.738,-0.739,-0.74,-0.741,-0.7419,-0.7425,-0.7435,-0.7445,-0.7457,-0.7466,-0.7476,-0.749,-0.7504,-0.7514,-0.7519,-0.7523,-0.7518,-0.7524,-0.7536,-0.7539,-0.7541,-0.7541,-0.7518,-0.7518,-0.751,-0.751,-0.751]}]]